FW9255 Weather Reports


time (UTC)temp
F
wind
direction
speed
knots
gust
knots
rain 1hr
in
rain 24hr
in
rain mn
in
humidity
%
barometer
mb
20260906224610 98 0 0.9 7.0 0.00 0.00 0.00 42 1012.0
20260906223112 98 0 0.9 5.2 0.00 0.00 0.00 42 1012.2
20260906221604 98 0 0.0 8.7 0.00 0.00 0.00 42 1012.2
20260906220113 98 138 0.9 7.0 0.00 0.00 0.00 42 1012.2
20260906214626 98 121 0.9 6.1 0.00 0.00 0.00 42 1012.4
20260906213105 99 135 0.0 4.3 0.00 0.00 0.00 42 1012.6
20260906211605 98 117 0.0 6.1 0.00 0.00 0.00 44 1012.8
20260906210109 98 128 0.9 6.1 0.00 0.00 0.00 43 1013.0
20260906204623 98 0 0.0 8.7 0.00 0.00 0.00 44 1013.3
20260906203101 98 121 2.6 11.3 0.00 0.00 0.00 44 1013.5
20260906201616 98 0 0.9 7.8 0.00 0.00 0.00 44 1013.6
20260906194607 97 0 0.9 8.7 0.00 0.00 0.00 44 1013.8
20260906193108 97 0 0.9 7.0 0.00 0.00 0.00 45 1014.1
20260906191604 97 130 1.7 7.8 0.00 0.00 0.00 43 1014.3
20260906184610 95 148 0.0 7.0 0.00 0.00 0.00 47 1014.5
20260906183108 96 119 1.7 8.7 0.00 0.00 0.00 47 1014.9
20260906181610 96 0 0.0 3.5 0.00 0.00 0.00 48 1015.1
20260906180119 95 0 0.0 4.3 0.00 0.00 0.00 50 1015.2
20260906174609 94 0 0.0 4.3 0.00 0.00 0.00 51 1015.5
20260906173105 94 0 0.0 6.1 0.00 0.00 0.00 51 1015.7
20260906171608 94 0 0.0 4.3 0.00 0.00 0.00 54 1015.7
20260906170108 93 0 0.0 4.3 0.00 0.00 0.00 53 1016.0
20260906164610 93 0 0.0 0.0 0.00 0.00 0.00 54 1016.1
20260906163103 92 0 0.0 0.0 0.00 0.00 0.00 56 1016.2
20260906161604 92 0 0.0 1.7 0.00 0.00 0.00 57 1016.0
20260906160100 92 0 0.0 0.0 0.00 0.00 0.00 58 1015.9
20260906154607 91 0 0.0 0.0 0.00 0.00 0.00 59 1016.0
20260906153104 90 0 0.0 0.0 0.00 0.00 0.00 64 1015.9
20260906151603 89 0 0.0 0.0 0.00 0.00 0.00 65 1015.6
20260906150110 89 0 0.0 0.0 0.00 0.00 0.00 66 1015.5
20260906144606 88 0 0.0 0.0 0.00 0.00 0.00 67 1015.5
20260906143112 87 0 0.0 0.0 0.00 0.00 0.00 68 1015.5
20260906141603 86 0 0.0 0.0 0.00 0.00 0.00 71 1015.6
20260906140111 86 0 0.0 0.0 0.00 0.00 0.00 73 1015.7
20260906134605 84 0 0.0 0.0 0.00 0.00 0.00 77 1015.7
20260906133111 83 0 0.0 0.0 0.00 0.00 0.00 79 1015.8
20260906131605 81 0 0.0 0.0 0.00 0.00 0.00 82 1015.8
20260906130105 78 0 0.0 0.0 0.00 0.00 0.00 86 1015.6
20260906124601 77 0 0.0 0.0 0.00 0.00 0.00 86 1015.3
20260906123115 77 0 0.0 0.0 0.00 0.00 0.00 85 1015.4
20260906121607 77 0 0.0 0.0 0.00 0.00 0.00 85 1015.0
20260906120147 77 0 0.0 0.0 0.00 0.00 0.00 84 1015.0
20260906114617 77 0 0.0 0.0 0.00 0.00 0.00 84 1014.9
20260906113059 77 0 0.0 0.0 0.00 0.00 0.00 83 1014.9
20260906111626 77 0 0.0 0.0 0.00 0.00 0.00 83 1014.7
20260906110104 77 0 0.0 0.0 0.00 0.00 0.00 82 1014.5
20260906104602 78 0 0.0 0.0 0.00 0.00 0.00 82 1014.5
20260906103109 78 0 0.0 0.0 0.00 0.00 0.00 80 1014.4
20260906101606 79 0 0.0 0.0 0.00 0.00 0.00 79 1014.4
20260906100107 80 0 0.0 0.0 0.00 0.00 0.00 78 1014.3
20260906094602 81 0 0.0 0.0 0.00 0.00 0.00 77 1014.3
20260906093108 81 0 0.0 0.0 0.00 0.00 0.00 75 1014.1
20260906091603 82 0 0.0 0.0 0.00 0.00 0.00 75 1014.0
20260906090100 81 0 0.0 0.0 0.00 0.00 0.00 75 1013.8
20260906084607 82 0 0.0 0.0 0.00 0.00 0.00 74 1013.9
20260906083055 82 0 0.0 0.0 0.00 0.00 0.00 73 1013.7
20260906081605 83 0 0.0 0.0 0.00 0.00 0.00 72 1013.7
20260906074558 83 0 0.0 0.0 0.00 0.00 0.00 70 1013.6
20260906073055 83 0 0.0 0.0 0.00 0.00 0.00 70 1013.8
20260906071604 84 0 0.0 0.0 0.00 0.00 0.00 69 1014.0
20260906070104 84 0 0.0 0.0 0.00 0.00 0.00 68 1014.1
20260906064556 84 0 0.0 0.0 0.00 0.00 0.00 69 1014.1
20260906063106 83 0 0.0 0.0 0.00 0.00 0.00 69 1014.0
20260906061608 83 0 0.0 0.0 0.00 0.00 0.00 70 1014.0
20260906060109 84 0 0.0 0.0 0.00 0.00 0.00 68 1013.9
20260906054616 84 0 0.0 0.0 0.00 0.00 0.00 67 1013.9
20260906053105 85 0 0.0 0.0 0.00 0.00 0.00 66 1014.1
20260906051605 85 0 0.0 0.0 0.00 0.00 0.00 66 1014.1
20260906050107 86 0 0.0 0.0 0.00 0.00 0.00 64 1014.1
20260906044600 86 0 0.0 0.0 0.00 0.00 0.00 63 1014.0
20260906043104 87 0 0.0 0.0 0.00 0.00 0.00 61 1014.0
20260906041604 87 0 0.0 0.0 0.00 0.00 0.00 60 1013.9
20260906040109 88 0 0.0 0.0 0.00 0.00 0.00 59 1013.9
20260906034556 88 0 0.0 0.0 0.00 0.00 0.00 59 1014.1
20260906033135 88 0 0.0 0.0 0.00 0.00 0.00 59 1013.9
20260906031614 88 0 0.0 0.0 0.00 0.00 0.00 58 1014.0
20260906030059 89 142 2.6 7.8 0.00 0.00 0.00 57 1013.9
20260906024608 89 138 3.5 8.7 0.00 0.00 0.00 56 1013.8
20260906023104 90 140 3.5 7.0 0.00 0.00 0.00 56 1013.5
20260906021614 91 144 2.6 7.8 0.00 0.00 0.00 54 1013.3
20260906014606 92 182 3.5 9.6 0.00 0.00 0.00 51 1012.8
20260906013112 93 0 0.0 0.0 0.00 0.00 0.00 51 1012.5
20260906011607 93 0 0.0 0.0 0.00 0.00 0.00 50 1012.4
20260906010105 94 0 0.0 0.0 0.00 0.00 0.00 48 1012.3
20260906004603 95 0 0.0 0.0 0.00 0.00 0.00 45 1012.1
20260906003105 96 0 0.0 0.0 0.00 0.00 0.00 43 1012.1
20260906001623 97 0 0.0 0.0 0.00 0.00 0.00 41 1012.0
20260906000108 97 0 0.0 0.0 0.00 0.00 0.00 41 1012.0
20260905234602 97 0 0.0 0.0 0.00 0.00 0.00 42 1011.8
20260905233104 98 0 0.0 0.0 0.00 0.00 0.00 41 1011.9
20260905231608 98 0 0.0 0.0 0.00 0.00 0.00 41 1011.9
20260905230105 98 0 0.0 5.2 0.00 0.00 0.00 40 1011.9